Flag for Germany Weather past 2 weeks in Hilden, North Rhine-Westphalia, Germany

Now
64 °F

Sunny.


Feels Like: 64 °F
Forecast: 61 / 71 °F
Wind: 2 mph from Northeast

Location: Duesseldorf

Current Time: Jul 24, 2014 at 11:01:12 PM

Latest Report: Jul 24, 2014 at 10:20 PM


Visibility: 10 mi

Pressure: 29.98 "Hg

Humidity: 88%

Dew point: 61 °F

Location of HildenLocation

Historic Weather in Hilden — Graph

°F

Hilden temperature yesterday

Maximum temperature yesterday: 82 °F (at 3:20 PM)
Minimum temperature yesterday: 64 °F (at 2:20 AM)
Average temperature yesterday: 75 °F

Past Weeks' High & Low Weather Summary

 TemperatureHumidityPressure
High93 °F (Jul 19, 3:50 PM)100% (Jul 10, 12:50 AM)30.18 "Hg (Jul 10, 12:50 AM)
Low55 °F (Jul 15, 1:50 AM)23% (Jul 19, 4:50 PM)29.68 "Hg (Jul 9, 9:20 PM)
Average71 °F71%29.96 "Hg
* Reported Jul 9 9:20 PM — Jul 24 9:50 PM, Hilden, Weather by CustomWeather, © 2014

Note: Actual official high and low records may vary slightly from our data, if they occured in-between our weather recording intervals... More about our weather records

Advertising

Hilden weather history for previous 24 hours

 ConditionsComfort  
Time TempWeatherWind HumidityBarometerVisibility
9:50 PM
Jul 24
64 °FSunny.5 mph88%29.98 "Hg10 mi
9:20 PM66 °FSunny.5 mph83%29.98 "Hg10 mi
8:50 PM66 °FPassing clouds.5 mph88%29.98 "HgN/A
8:20 PM66 °FScattered showers. Scattered clouds.5 mph83%29.95 "HgN/A
7:50 PM66 °FThunderstorms. Scattered clouds.6 mph73%29.95 "HgN/A
7:20 PM70 °FThunderstorms. Scattered clouds.6 mph60%29.95 "HgN/A
6:50 PM72 °FBroken clouds.9 mph57%29.95 "HgN/A
6:20 PM73 °FThundershowers. Partly sunny.8 mph53%29.95 "HgN/A
5:50 PM73 °FThundershowers. Broken clouds.2 mph65%29.95 "HgN/A
5:20 PM75 °FThunderstorms. Broken clouds.20 mph50%29.95 "HgN/A
4:50 PM81 °FScattered showers. Scattered clouds.14 mph37%29.95 "HgN/A
4:20 PM79 °FScattered clouds.18 mph39%29.92 "HgN/A
3:50 PM79 °FScattered clouds.17 mph39%29.95 "HgN/A
3:20 PM81 °FPassing clouds.16 mph37%29.95 "HgN/A
2:50 PM81 °FPassing clouds.14 mph39%29.95 "HgN/A
2:20 PM79 °FPassing clouds.14 mph42%29.95 "HgN/A
1:50 PM79 °FPassing clouds.14 mph45%29.95 "HgN/A
1:20 PM79 °FPassing clouds.13 mph45%29.98 "HgN/A
12:50 PM77 °FPassing clouds.15 mph54%29.98 "HgN/A
12:20 PM77 °FPassing clouds.15 mph51%29.98 "HgN/A
11:50 AM77 °FPassing clouds.14 mph51%29.98 "HgN/A
11:20 AM75 °FPassing clouds.10 mph50%29.98 "HgN/A
10:50 AM75 °FSunny.13 mph50%29.98 "Hg10 mi
10:20 AM73 °FSunny.12 mph53%29.98 "Hg10 mi
9:50 AM72 °FSunny.10 mph57%29.98 "Hg10 mi
9:20 AM70 °FSunny.13 mph64%29.98 "Hg10 mi
8:50 AM70 °FSunny.12 mph60%29.98 "Hg10 mi
8:20 AM68 °FSunny.10 mph64%29.98 "Hg10 mi
7:50 AM66 °FSunny.12 mph68%29.98 "Hg10 mi
7:20 AM66 °FSunny.10 mph68%29.98 "Hg10 mi
6:50 AM64 °FSunny.8 mph73%29.98 "Hg10 mi
6:20 AM64 °FClear.6 mph73%29.98 "Hg10 mi
5:50 AM64 °FClear.5 mph73%29.98 "Hg10 mi
5:20 AM64 °FClear.10 mph73%29.98 "Hg10 mi
4:50 AM64 °FClear.9 mph73%29.98 "Hg10 mi
4:20 AM66 °FClear.9 mph68%29.98 "Hg10 mi
3:50 AM64 °FClear.9 mph78%29.98 "Hg10 mi
3:20 AM66 °FClear.9 mph73%29.98 "Hg10 mi
2:50 AM66 °FClear.8 mph73%29.98 "Hg10 mi
2:20 AM68 °FClear.8 mph69%30.01 "Hg10 mi
1:50 AM66 °FClear.6 mph73%30.01 "Hg10 mi
1:20 AM68 °FClear.5 mph73%30.01 "Hg10 mi
12:50 AM68 °FClear.5 mph69%30.01 "Hg10 mi
12:20 AM72 °FClear.7 mph61%30.01 "Hg10 mi
11:50 PM
Jul 23
70 °FClear.5 mph69%30.01 "Hg10 mi
11:20 PM72 °FClear.7 mph65%30.01 "Hg10 mi
Weather by CustomWeather, © 2014

See weather overviewHow to use our weather pages